Showing default

KUIPER-00209, 67776

Orbit data source: Space-Track

KUIPER-00209, 67776 is a payload satellite owned by Kuiper Systems (US) in LEO that was launched on Thu, 12 Feb 2026 UTC via an ARIANE 64 launch vehicle from the French Guiana (FRGUI). Payload-class satellites include a variety of spacecraft equipped with specific instruments for various scientific and technological missions. These include communications satellites like Starlink; space stations such as the ISS; scientific satellites like the Hubble; Earth observation satellites from companies like Planet Labs, Umbra, and HawkEye 360; GPS; miniature CubeSats for education and research; and military/defense satellites.

Loading next visibility...
Identifier
67776, 2026-030N
Orbit
LEO
Country
Flag of USUS
Related business
Manufacturer
Kuiper Systems
Mission
Operational Commercial Communications
Bus & Motor
KUIPER, Unknown motor
Mass
~490 kg wet, ~490 kg dry
Launch date (UTC)
2026-02-12 (4 months ago)
Launch vehicle
ARIANE 64
Launch site
French Guiana (FRGUI)
Object type
Payload
Rocket body
Debris
Shape & HBR
Box + 2 Pan, 3.4 m
Radar Cross Section
2.326 m², Large (>1 m²)

Expand to show TLE details & history
Last TLE update: 1 day ago

TLE from 1 day ago
0 KUIPER-00209
1 67776U 26030N   26170.86366149  .00002465  00000-0  35228-3 0  9993
2 67776  51.9002 116.3885 0000626  57.8377 302.2646 14.79928519 20375
Epoch: 2026-06-19T20:43Z
TLE epoch observation values (Epoch: 2026-06-19T20:43:40.352Z)
Latitude
-0.00003°
Longitude
-102.61619°
Altitude
630.062 km
Speed
7.545 km/s
True Right ascension
07h 45m 33s
True Declination
0° 00' 00"
Sunlit
Object was in daylight at epoch
Visualization orbit readout
Latitude
Unknown
Longitude
Unknown
Altitude
Unknown
Speed
Unknown
Apparent Right ascension
Unknown
Apparent Declination
Unknown
Sunlit
N/A
Visualization observer readout
Local Sidereal Time
07:21:02
Azimuth
Unknown
Elevation
Unknown
Doppler factor
Unknown
Orbital elements
Apogee altitude
630.44 km
Perigee altitude
629.562 km
Semi-major axis
7,008.138 km
Eccentricity
0.00006
Inclination
51.9002°
RAAN
116.3885°
Arg. of periapsis
57.8377°
True anomaly
302.25853°
Mean anomaly
302.2646°
Eccentric anomaly
302.26157°
Mean motion
3.69947 °/min
Orbital period
97.31 mins
BSTAR
0.00035228
Loading maneuver chart data...
Computing Atmospheric mass density...
Loading historical data...
Loading historical data...
Loading historical data...
Loading historical data...
Loading historical data...
Loading historical data...
Loading historical data...

Documentation

Showing up to 5 results
|